GPS 2-13 Rocket1 - Orbit

View from above orbital plane
View from above orbital plane
View from above satellite
View from above satellite

Ground track
Ground track

The orbit data is extracted from the following two-line orbital elements,

1 21931U 92019B   13143.83879034  .00050561  00000-0  63539-3 0  1977
2 21931 021.1610 035.2953 0024916 286.4281 146.4263 15.57524629165205
Epoch (UTC): 23 May 2013 20:07:51
Eccentricity: 0.0024916
inclination: 21.1610°
perigee height: 378 km
apogee height: 412 km
right ascension of ascending node: 35.2953°
argument of perigee: 286.4281°
revolutions per day: 15.57524629
mean anomaly at epoch: 146.4263°
orbit number at epoch: 16520

The dashed part of the orbit path shows where the satellite is in the earth's shadow,  

Developed and maintained by Chris Peat, Heavens-Above GmbH. Please read the updated FAQ before sending e-mail. Imprint. DLR